Location: Curupao
(10.4996°N, 66.6442°W)
Time: 01:54:54
(UTC+00:00)

Cosmos 332 Rocket - Pass Details

Date: 23 May 2024
Orbit: 676 x 699 km, 74.0° (Epoch: 12 June)

Event Time Altitude Azimuth Distance (km) Brightness Sun altitude
Exits shadow 08:15:59 72° 169° (S) 718 3.7 -24.9°
Maximum altitude 08:16:26 83° 102° (ESE) 692 3.7 -24.8°
Drops below altitude 10° 08:21:14 10° 15° (NNE) 2,131 6.8 -23.8°
Sets 08:23:33 0° 14° (NNE) 3,051 7.7 -23.3°
